Tracking 18980 objects as of 19-Feb-2018
HD Live streaming from Space Station
objects crossing your sky now

FENGYUN 1C DEB

Track FENGYUN 1C DEB now!
10-day predictions


NORAD ID: 31456
Int'l Code: 1999-025BUU
Perigee: 737.3 km
Apogee: 856.6 km
Inclination: 98.6 °
Period: 100.7 minutes
Semi major axis: 7167 km
RCS: 0.0099 m2 (small)
Launch date: May 10, 1999
Source: People's Republic of China (PRC)
Launch site: Taiyaun Space Center, China (TSC)

Note: This is SATELLITE DEBRIS
aabbcc
Your satellite tracking list
Your tracking list is empty




NASA's NSSDC Master Catalog

Two Line Element Set (TLE):
1 31456U 99025BUU 18048.46095355 +.00000372 +00000-0 +15329-3 0  9997
2 31456 098.6478 132.6122 0083246 112.9840 248.0151 14.30582953566657
Source of the keplerian elements: AFSPC